User: anonymous   Login
Location: Caltech
(34.1382°N, 118.1253°W)
Time: 17:30:53
(UTC-07:00)
Language:

Cosmos 1484 Rocket - Orbit

View from above orbital plane
View from above orbital plane
View from above satellite
View from above satellite

Ground track
Ground track

The orbit data is extracted from the following two-line orbital elements,

1 14208U 83075B   18114.57986950 +.00000165 +00000-0 +13536-4 0  9996
2 14208 097.3440 117.4243 0040386 134.8026 225.6500 15.10667833894215
Epoch (UTC): 24 April 2018 13:55:00
Eccentricity: 0.0040386
inclination: 97.3440°
perigee height: 506 km
apogee height: 562 km
right ascension of ascending node: 117.4243°
argument of perigee: 134.8026°
revolutions per day: 15.10667833
mean anomaly at epoch: 225.6500°
orbit number at epoch: 89421

The dashed part of the orbit path shows where the satellite is in the earth's shadow,  

DLR